• Processing (Info)

  • MPEC 2016-T12 : 2016 SZ35

    The following Minor Planet Electronic Circular may be linked-to from your own Web pages, but must not otherwise be redistributed electronically.

    A form allowing access to any MPEC is at the bottom of this page.


    Read MPEC 2016-T11 Read MPEC 2016-T13


    M.P.E.C. 2016-T12                                Issued 2016 Oct. 3, 02:49 UT
    
         The Minor Planet Electronic Circulars contain information on unusual
             minor planets and routine data on comets.  They are published
        on behalf of Division F of the International Astronomical Union by the
              Minor Planet Center, Smithsonian Astrophysical Observatory,
                              Cambridge, MA 02138, U.S.A.
    
                 Prepared using the Tamkin Foundation Computer Network
    
                                  MPC@CFA.HARVARD.EDU
                URL https://www.minorplanetcenter.net/    ISSN 1523-6714
    
                                       2016 SZ35
    
    Observations:
         K16S35Z* C2016 09 30.47657 01 04 45.517+03 23 00.15         21.3 wLET012F51
         K16S35Z  C2016 09 30.48782 01 04 43.612+03 23 38.07         21.3 wLET012F51
         K16S35Z  C2016 09 30.51029 01 04 39.811+03 24 54.25         21.1 wLET012F51
         K16S35Z KC2016 09 30.97573 01 03 26.43 +03 51 16.7          21.0 RqET012104
         K16S35Z KC2016 09 30.99045 01 03 23.90 +03 52 06.3                qET012104
         K16S35Z KC2016 10 01.00590 01 03 21.33 +03 52 59.4                qET012104
         K16S35Z KC2016 10 02.08058 01 00 23.24 +04 55 59.5                qET012J95
         K16S35Z KC2016 10 02.09010 01 00 21.64 +04 56 35.1                qET012J95
         K16S35Z KC2016 10 02.09658 01 00 20.52 +04 56 57.2          20.6 RqET012J95
         K16S35Z  C2016 10 02.25106 00 59 55.49 +05 06 21.8          20.3 RoET012926
         K16S35Z  C2016 10 02.26005 00 59 53.88 +05 06 54.5          20.2 RoET012926
         K16S35Z  C2016 10 02.26867 00 59 52.30 +05 07 25.6          20.3 RoET012926
         K16S35Z KC2016 10 03.04681 00 57 36.42 +05 54 42.8                qET012J95
         K16S35Z KC2016 10 03.05553 00 57 34.77 +05 55 15.3                qET012J95
         K16S35Z KC2016 10 03.06627 00 57 32.87 +05 55 54.8          21.0 RqET012J95
    
    Observer details:
    104 San Marcello Pistoiese.  Observers P. Bacci, M. Maestripieri.  Measurers
        P. Bacci, L. Tesi, G. Fagioli.  0.60-m f/4 reflector + CCD.
    926 Tenagra II Observatory.  Observers M. Schwartz, P. R. Holvorcem.  Measurer
        M. Schwartz.  0.81-m f/7 Ritchey-Chretien + CCD.
    F51 Pan-STARRS 1, Haleakala.  Observers B. Gibson, T. Goggia, S. Kahale,
        A. Schultz, M. Willman.  Measurers K. Chambers, S. Chastel, L. Denneau,
        H. Flewelling, M. Huber, E. Lilly, E. Magnier, R. Wainscoat, C. Waters,
        R. Weryk.  1.8-m Ritchey-Chretien + CCD.
    J95 Great Shefford.  Observer P. Birtwhistle.  0.40-m f/6.0 Schmidt-Cassegrain
        + CCD.
    
    Orbital elements:
    2016 SZ35                                                Earth MOID = 0.2333 AU
    Epoch 2016 July 31.0 TT = JDT 2457600.5                 MPC
    M 309.69634              (2000.0)            P               Q
    n   0.38696603     Peri.   59.40142     +0.34142385     -0.93697011
    a   1.8650372      Node    11.39368     +0.68088801     +0.19208473
    e   0.4070225      Incl.   22.08501     +0.64793616     +0.29187406
    P   2.55           H   22.6           G   0.15           U   9
    Residuals in seconds of arc
    160930 F51  0.0   0.1+    161001 104  1.0+  0.8-    161002 926  0.2-  0.5+
    160930 F51  0.1-  0.1-    161002 J95  0.7-  0.5-    161002 926  0.5-  0.4+
    160930 F51  0.3-  0.0     161002 J95  0.5+  1.0+    161003 J95  0.1-  0.2-
    160930 104  0.5+  0.6+    161002 J95  0.8+  0.2-    161003 J95  0.7-  0.1+
    160930 104  0.1+  0.6-    161002 926  0.4-  0.3+    161003 J95  0.5+  0.2-
    
    Ephemeris:
    2016 SZ35                a,e,i = 1.87, 0.41, 22                  q = 1.1059
    Date    TT    R. A. (2000) Decl.     Delta      r     Elong.  Phase     V
    2016 09 03    01 37 43.6 -11 56 19   0.5299  1.4474   138.2    27.7    23.3
    ...
    2016 09 18    01 28 26.7 -05 49 31   0.3918  1.3662   153.3    19.3    22.2
    ...
    2016 09 26    01 15 17.4 -00 29 01   0.3320  1.3248   163.9    12.1    21.5
    ...
    2016 10 02    01 00 37.5 +04 51 30   0.2958  1.2950   173.0     5.4    21.0
    2016 10 03    00 57 45.1 +05 52 08   0.2906  1.2901   174.4     4.3    20.9
    2016 10 04    00 54 45.2 +06 54 48   0.2856  1.2853   175.6     3.4    20.8
    ...
    2016 10 10    00 34 11.9 +13 49 36   0.2618  1.2572   170.0     7.9    20.7
    ...
    2016 10 18    00 00 45.1 +24 05 45   0.2463  1.2223   153.9    21.0    21.0
    ...
    2016 11 02    22 50 41.4 +41 02 28   0.2630  1.1666   126.1    43.4    21.7
    
    A. U. Tomatic                (C) Copyright 2016 MPC           M.P.E.C. 2016-T12
    

    Read MPEC 2016-T11 Read MPEC 2016-T13


    MPEC number:

    Enter an MPEC number in one of the following forms:

    • 1997-B01 (the full form)
    • J97B01 (the packed version of the full form)
    • B01 (the abbreviated form)